#timestamp,LO_Frequency,Hit,StdDev 
1606435215.4,286047001.9,N
1606435235.2,286046999.8,N
1606435255.1,286046999.8,N
1606435256.0,286046999.8,N
1606435275.8,286046999.8,N
1606435295.6,286047002.7,N
1606435315.5,286047002.7,N
1606435335.3,286047002.3,N
1606435355.1,286047002.4,N
1606435375.9,286047000.3,N
1606435395.7,286047000.3,N
1606435415.5,286046998.5,N
1606435435.4,286046998.2,N
1606435455.2,286047000.4,N
1606435475.0,286047000.9,N
1606435475.9,286047000.9,N
1606435495.8,286046999.9,N
1606435515.6,286047001.8,N
1606435535.4,286046999.9,N
1606435555.3,286047000.7,N
1606435575.1,286046999.7,N
1606435576.0,286046999.7,N
1606435595.8,286047000.0,N
1606435615.7,286047002.8,N
1606435635.5,286047000.1,N
1606435655.3,286047002.8,N
1606435675.2,286047002.4,N
1606435695.9,286047001.9,N
1606435715.7,286047000.3,N
1606435735.6,286047002.3,N
1606435755.4,286047002.3,N
1606435775.2,286047000.4,N
1606435795.1,286047001.2,N
1606435796.0,286047001.2,N
1606435815.8,286047000.0,N
1606435835.6,286046998.8,N
1606435855.5,286047002.7,N
1606435875.3,286046997.1,N
1606435895.1,286046998.9,N
1606435915.9,286047001.2,N
1606435935.7,286047001.1,N
1606435955.5,286047000.6,N
1606435975.4,286047001.0,N
1606435995.2,286046999.2,N
1606436015.0,286046996.8,N
1606436015.9,286046996.8,N
1606436035.8,286046997.9,N
1606436055.6,286046996.9,N
1606436075.4,286046994.9,N
1606436095.3,286046997.6,N
1606436115.1,286046997.7,N
1606436116.0,286046997.7,N
1606436135.8,286046999.4,N
1606436155.7,286046999.3,N
1606436175.5,286046997.6,N
1606436195.3,286046995.4,N
1606436215.2,286046995.3,N
1606436235.9,286046996.1,N
1606436255.7,286046995.7,N
1606436275.6,286046997.8,N
1606436295.4,286046997.7,N
1606436315.2,286046995.5,N
1606436335.1,286046995.4,N
1606436336.0,286046995.4,N
1606436355.8,286046997.4,N
1606436375.6,286046997.0,N
1606436395.5,286046997.0,N
1606436415.3,286046996.5,N
1606436435.1,286046999.2,N
1606436455.9,286046997.0,N
1606436475.7,286046996.7,N
1606436495.5,286046997.5,N
1606436515.4,286046995.7,Y
1606436535.2,286047001.1,P
1606436555.0,286047011.9,P
1606436555.9,286047000.8,N
1606436575.8,286046998.1,N
1606436595.6,286046998.5,N
1606436615.4,286046999.4,N
1606436635.3,286046996.5,N
1606436655.1,286046998.5,N
1606436656.0,286046998.5,N
1606436675.8,286047000.7,N
1606436695.7,286047001.0,N
1606436715.5,286047001.0,N
1606436735.3,286046999.9,N
1606436755.2,286047000.8,N
1606436775.9,286047001.0,N
1606436795.7,286047001.0,N
1606436815.6,286046998.7,N
1606436835.4,286046999.0,N
1606436855.2,286046998.3,N
1606436875.1,286046998.6,N
1606436876.0,286046998.6,N
1606436895.8,286046996.5,N
1606436915.6,286046997.2,N
1606436935.5,286046998.9,N
1606436955.3,286046997.0,N
1606436975.1,286046997.3,N
1606436995.9,286046997.4,N
1606437015.7,286046997.8,N
1606437035.5,286046997.8,N
1606437055.4,286046998.0,N
1606437075.2,286046995.0,N
1606437095.0,286046997.3,N
1606437095.9,286046997.3,N
1606437115.8,286046996.7,N
1606437135.6,286046996.5,N
1606437155.4,286046996.5,N
1606437175.3,286046997.6,N
1606437195.1,286046995.9,N
1606437196.0,286046995.9,N
1606437215.8,286046993.3,Y
1606437235.7,286046999.1,P
1606437255.5,286046998.6,P
1606437275.3,286047000.9,N
1606437295.2,286046998.8,N
1606437315.9,286046999.0,N
1606437335.7,286046998.3,N
1606437355.6,286046997.1,Y
1606437375.4,286046999.0,P
1606437395.2,286047000.7,P
1606437415.1,286046999.7,N
1606437416.0,286046999.7,N
1606437435.8,286047000.3,N
1606437455.6,286047001.2,N
1606437475.5,286047000.9,N
1606437495.3,286047001.2,N
1606437515.1,286047000.3,N
1606437535.9,286047000.9,N
1606437555.7,286047000.3,N
1606437575.5,286046999.0,N
1606437595.4,286046999.6,N
1606437615.2,286046998.9,N
1606437635.0,286046996.5,Y
1606437635.9,286046996.5,P
1606437655.8,286046998.9,N
1606437675.6,286046998.9,N
1606437695.4,286046998.5,N
1606437715.3,286046996.5,Y
1606437735.1,286046996.9,P
1606437736.0,286046996.9,P
1606437755.8,286046999.2,N
1606437775.7,286046999.5,N
1606437795.5,286047001.1,N
1606437815.3,286047000.5,N
1606437835.2,286047000.7,N
1606437855.9,286046998.2,N
1606437875.7,286046998.7,N
1606437895.6,286046998.9,N
1606437915.4,286046999.6,N
1606437935.2,286047001.1,N
1606437955.1,286047000.6,N
1606437956.0,286047000.6,N
1606437975.8,286046998.5,N
1606437995.6,286047001.1,N
1606438015.5,286046998.8,N
1606438035.3,286046998.4,N
1606438055.1,286046998.3,N
1606438075.9,286046998.2,N
1606438095.7,286046999.3,N
1606438115.5,286047001.0,N
1606438135.4,286046999.3,N
1606438155.2,286046999.8,N
1606438175.0,286047000.4,N
1606438175.9,286047000.4,N
1606438195.8,286047000.4,N
1606438215.6,286047000.9,N
1606438235.4,286047000.9,N
1606438255.3,286047002.3,N
1606438275.1,286046999.8,N
1606438276.0,286046999.8,N
1606438295.8,286047000.0,N
1606438315.7,286047000.0,N
1606438335.5,286046998.3,N
1606438355.3,286046998.5,N
1606438375.2,286046998.6,N
1606438395.9,286047000.0,N
1606438415.7,286047000.8,N
1606438435.6,286047000.5,N
1606438455.4,286047001.1,N
1606438475.2,286046998.7,N
1606438495.1,286047000.7,N
1606438496.0,286047000.7,N
1606438515.8,286046999.7,N
1606438535.6,286047000.1,N
1606438555.5,286047000.1,N
1606438575.3,286047001.7,N
1606438595.1,286047001.6,N
1606438615.9,286047002.2,N
1606438635.7,286047002.4,N
1606438655.5,286047002.7,N
1606438675.4,286047002.8,N
1606438695.2,286047000.2,N
1606438715.0,286047002.5,N
1606438715.9,286047002.5,N
1606438735.8,286046999.9,N
1606438755.6,286047002.3,N
1606438775.4,286047001.7,N
1606438795.3,286047000.4,N
